Location: Bothwell
(42.3833°S, 147.0000°E)
Time: 04:25:28
(UTC+10:00)

Oscar 11 - Visible Passes

Search period start: 28 September 2022 00:00
Search period end: 08 October 2022 01:00
Orbit: 611 x 623 km, 97.6° (Epoch: 27 September)

Date Brightness Start Highest point End Pass type
(mag) Time Alt. Az. Time Alt. Az. Time Alt. Az.
28 Sep 8.8 03:27:39 10° NE 03:31:34 33° ESE 03:35:32 10° S visible
28 Sep 8.2 05:04:12 10° NNW 05:07:41 23° W 05:11:13 10° SW visible
29 Sep 8.0 03:43:41 10° NNE 03:47:54 49° ESE 03:52:10 10° S visible
29 Sep 8.6 05:21:37 10° NW 05:24:15 16° W 05:26:55 10° SW visible
30 Sep 7.2 03:59:55 10° NNE 04:04:16 75° ESE 04:08:41 10° S visible
01 Oct 10.3 02:43:33 10° E 02:45:13 12° ESE 02:46:53 10° SE visible
01 Oct 7.0 04:16:19 10° N 04:20:41 73° WNW 04:25:05 10° SSW visible
02 Oct 9.9 03:58:34 10° ENE 04:01:26 17° ESE 04:04:18 10° SSE visible
02 Oct 7.3 05:32:54 10° N 05:37:07 47° W 05:41:23 10° SSW visible
03 Oct 9.4 04:14:08 10° ENE 04:17:40 25° ESE 04:21:14 10° SSE visible
03 Oct 7.8 05:49:42 10° NNW 05:53:36 31° W 05:57:33 10° SSW visible
04 Oct 8.7 04:29:58 10° NE 04:33:58 35° ESE 04:37:58 10° S visible
04 Oct 8.3 06:06:46 10° NW 06:10:07 21° W 06:13:30 10° SW visible
05 Oct 7.9 04:46:03 10° NNE 04:50:17 53° ESE 04:54:35 10° S visible
06 Oct 7.2 05:02:17 10° NNE 05:06:39 81° ESE 05:11:04 10° S visible
07 Oct 10.3 03:45:36 10° E 03:47:33 13° ESE 03:49:30 10° SE visible
07 Oct 7.0 05:18:43 10° N 05:23:03 67° W 05:27:27 10° SSW visible
